Regional Weather Roundup
Issued by NWS

Home | Current Version | Previous Version | Graphics & Text | Print | Product List | Glossary On
Versions: 1 2 3 4 5 6 7 8 9 10 11 12 13 14 15 16 17 18 19 20 21 22 23 24 25 26 27 28 29 30 31 32 33 34 35 36 37 38 39 40 41 42 43 44 45 46 47 48 49 50
000
ASUS45 KSLC 281010
RWRUT

UTAH REGIONAL WEATHER ROUNDUP
NATIONAL WEATHER SERVICE SALT LAKE CITY UT
300 AM MST SUN DEC 28 2014

UTZ001>011-023>025-281100-

NORTHERN UTAH

CITY           SKY/WX    TMP DP  RH WIND       PRES   REMARKS
BRIGHAM CITY   CLOUDY    28  14  54 S9        30.16F WCI  20
HILL AFB       CLOUDY    24  13  62 S16       30.14F WCI  10
LOGAN          CLOUDY    25  15  66 NW6       30.14F WCI  18
OGDEN          CLOUDY    25  14  63 SE12      30.14F WCI  14
PROVO AIRPORT  CLOUDY    21  16  79 SE5       30.21R WCI  15
SALT LAKE CITY CLOUDY    26  16  65 SE9       30.17F WCI  17
VERNAL         MOCLDY    13   8  81 CALM      30.17F
WENDOVER       CLOUDY    25  16  68 NE5       30.16R WCI  19
HEBER CITY     CLOUDY    14  10  85 CALM      30.16R
WEST JORDAN    CLOUDY    25  19  80 S17       30.17S WCI  11

$$

UTZ012>022-026-027-281100-

SOUTHERN/CENTRAL UTAH

CITY           SKY/WX    TMP DP  RH WIND       PRES   REMARKS
BLANDING       CLEAR     15   9  77 NE5       30.29S WCI   7
BRYCE CANYON   CLEAR      0  -5  79 SW6       30.15S WCI -12
CEDAR CITY     MOCLDY    11   4  73 W3        30.19F
DELTA          CLOUDY    19  14  82 CALM      30.19F
MILFORD        MOCLDY    21  10  62 SW21      30.18F WCI   5
MOAB/CYNLANDS  MOCLDY    16  11  80 CALM      30.23S
PRICE          CLOUDY    18   7  62 E5        30.16F WCI  11
ST GEORGE      PTSUNNY   25   5  42 S5        30.33S WCI  19
KANAB          CLEAR     14  10  85 NE3       30.30S

$$

REGIONAL REPORTS     COLORADO/ARIZONA

CITY           SKY/WX    TMP DP  RH WIND       PRES   REMARKS
CRAIG, CO      CLOUDY    12   5  73 E3        30.12F
GRAND JUNCTION MOCLDY    17  10  74 E7        30.23F WCI   8
RIFLE          CLOUDY    13   7  77 CALM      30.22F
MONTROSE       CLOUDY    13   6  74 SE7       30.23F WCI   3
CORTEZ         CLEAR      7   2  80 E5        30.24R WCI  -2
PAGE, AZ       CLEAR     27   8  44 CALM      30.25S
GRAND CANYON   PTCLDY     7   3  84 CALM      30.22F
KINGMAN        PTCLDY    21  12  68 E3        30.27F
FLAGSTAFF      CLEAR      9   4  80 CALM      30.20S

$$

REGIONAL REPORTS    NEVADA/IDAHO/WYOMING

CITY           SKY/WX    TMP DP  RH WIND       PRES   REMARKS
LAS VEGAS, NV  MOCLDY    34  11  38 S9        30.27S WCI  27
ELY            CLOUDY    13   6  74 S9        30.20S WCI   1
ELKO           CLOUDY    28  18  66 SW9       30.14F WCI  19
POCATELLO, ID  CLOUDY    26  20  77 S21       30.05F WCI  12
BURLEY         CLOUDY    29  21  72 S16       30.03F WCI  17
EVANSTON, WY   CLOUDY    14   4  64 SW17G25   30.02F WCI  -3
ROCK SPRINGS   LGT SNOW  13  10  88 SW7       30.02S FOG     WCI   3

$$



USA.gov is the U.S. government's official web portal to all federal, state and local government web resources and services.